When you browse on this site, cookies collect data to enhance your experience and personalize the content and advertising you see.
Visit our Privacy Policy to learn more. By continuing to use the site, you agree to this use of cookies and data.
  • In Spain
  • List of Countries
  • For 7 days
  • Water Temperature
  • Satellite Maps
  • Weather Map
  • Weather Widgets
  • user-avatar
    Login

    Hourly Weather Ludlow

    Today, 21 April, Sunday

    Time Temperature Precipitation Wind Pressure Humidity
    00:00 +13°C° 0 mm 2 mps 718 mmHg 96%
    01:00 +12°C° 0 mm 2 mps 718 mmHg 95%
    02:00 +10°C° 0 mm 2 mps 718 mmHg 96%
    03:00 +11°C° 0 mm 1 mps 718 mmHg 96%
    04:00 +10°C° 0 mm 1 mps 718 mmHg 97%
    05:00 +11°C° 0 mm 1 mps 719 mmHg 95%
    06:00 +11°C° 0 mm 1 mps 719 mmHg 93%
    07:00 +12°C° 0 mm 2 mps 720 mmHg 93%
    08:00 +13°C° 0 mm 1 mps 720 mmHg 88%
    09:00 +14°C° 0 mm 1 mps 720 mmHg 83%
    10:00 +15°C° 0 mm 1 mps 720 mmHg 78%
    11:00 +17°C° 0 mm 2 mps 720 mmHg 72%
    12:00 +18°C° 0 mm 2 mps 720 mmHg 66%
    13:00 +19°C° 0 mm 2 mps 720 mmHg 60%
    14:00 +19°C° 0.2 mm 2 mps 720 mmHg 63%
    15:00 +18°C° 0.2 mm 2 mps 720 mmHg 66%
    16:00 +18°C° 0.2 mm 2 mps 720 mmHg 70%
    17:00 +16°C° 0.3 mm 1 mps 721 mmHg 77%
    18:00 +15°C° 0.3 mm 1 mps 721 mmHg 84%
    19:00 +13°C° 0.3 mm 1 mps 721 mmHg 91%
    20:00 +13°C° 0.2 mm 1 mps 721 mmHg 92%
    21:00 +12°C° 0.2 mm 0 mps 722 mmHg 94%
    22:00 +11°C° 0.2 mm 0 mps 722 mmHg 95%
    23:00 +11°C° 0 mm 0 mps 722 mmHg 96%

    Tomorrow, 22 April, Monday

    Time Temperature Precipitation Wind Pressure Humidity
    00:00 +11°C° 0 mm 1 mps 722 mmHg 96%
    01:00 +11°C° 0 mm 1 mps 722 mmHg 97%
    02:00 +11°C° 0 mm 1 mps 722 mmHg 97%
    03:00 +11°C° 0 mm 1 mps 722 mmHg 97%
    04:00 +11°C° 0 mm 1 mps 722 mmHg 98%
    05:00 +11°C° 0 mm 1 mps 722 mmHg 96%
    06:00 +12°C° 0 mm 2 mps 723 mmHg 93%
    07:00 +12°C° 0 mm 2 mps 723 mmHg 91%
    08:00 +14°C° 0 mm 2 mps 723 mmHg 85%
    09:00 +15°C° 0 mm 2 mps 723 mmHg 80%
    10:00 +16°C° 0 mm 3 mps 723 mmHg 74%
    11:00 +17°C° 0.2 mm 3 mps 723 mmHg 70%
    12:00 +18°C° 0.2 mm 3 mps 723 mmHg 66%
    13:00 +19°C° 0.2 mm 3 mps 723 mmHg 63%
    14:00 +19°C° 0.2 mm 3 mps 722 mmHg 64%
    15:00 +18°C° 0.2 mm 3 mps 722 mmHg 66%
    16:00 +18°C° 0.2 mm 3 mps 722 mmHg 67%
    17:00 +17°C° 0.3 mm 2 mps 722 mmHg 73%
    18:00 +15°C° 0.3 mm 2 mps 722 mmHg 79%
    19:00 +13°C° 0.3 mm 1 mps 722 mmHg 86%
    20:00 +13°C° 0.1 mm 1 mps 722 mmHg 88%
    21:00 +12°C° 0.1 mm 1 mps 722 mmHg 91%
    22:00 +11°C° 0.1 mm 1 mps 722 mmHg 93%
    23:00 +11°C° 0 mm 1 mps 722 mmHg 94%

    Day after tomorrow, 23 April, Tuesday

    Time Temperature Precipitation Wind Pressure Humidity
    00:00 +11°C° 0 mm 1 mps 722 mmHg 94%
    01:00 +11°C° 0 mm 1 mps 722 mmHg 95%
    02:00 +11°C° 0.1 mm 1 mps 722 mmHg 95%
    03:00 +10°C° 0.1 mm 0 mps 722 mmHg 96%
    04:00 +9°C° 0.1 mm 0 mps 722 mmHg 96%
    05:00 +10°C° 0.1 mm 0 mps 722 mmHg 95%
    06:00 +10°C° 0.1 mm 0 mps 722 mmHg 94%
    07:00 +10°C° 0.1 mm 0 mps 722 mmHg 93%
    08:00 +13°C° 0 mm 0 mps 722 mmHg 85%
    09:00 +15°C° 0 mm 0 mps 722 mmHg 77%
    10:00 +17°C° 0 mm 0 mps 722 mmHg 69%
    11:00 +17°C° 0 mm 0 mps 721 mmHg 66%
    12:00 +20°C° 0 mm 1 mps 720 mmHg 63%
    13:00 +20°C° 0 mm 1 mps 720 mmHg 60%
    14:00 +19°C° 0 mm 2 mps 719 mmHg 62%
    15:00 +18°C° 0 mm 2 mps 718 mmHg 65%
    16:00 +17°C° 0 mm 3 mps 717 mmHg 67%
    17:00 +16°C° 0 mm 2 mps 717 mmHg 75%
    18:00 +14°C° 0 mm 2 mps 716 mmHg 83%
    19:00 +12°C° 0 mm 2 mps 716 mmHg 91%
    20:00 +12°C° 0.3 mm 2 mps 715 mmHg 91%
    21:00 +11°C° 0.3 mm 3 mps 715 mmHg 92%
    22:00 +10°C° 0.3 mm 3 mps 715 mmHg 92%
    23:00 +10°C° 0.8 mm 3 mps 714 mmHg 93%

    24 April, Wednesday

    Time Temperature Precipitation Wind Pressure Humidity
    00:00 +10°C° 0.8 mm 3 mps 713 mmHg 95%
    01:00 +10°C° 0.8 mm 3 mps 713 mmHg 96%
    02:00 +10°C° 0.5 mm 2 mps 712 mmHg 96%
    03:00 +12°C° 0.5 mm 2 mps 712 mmHg 96%
    04:00 +12°C° 0.5 mm 2 mps 712 mmHg 96%
    05:00 +10°C° 0 mm 3 mps 712 mmHg 92%
    06:00 +7°C° 0 mm 4 mps 712 mmHg 88%
    07:00 +6°C° 0 mm 4 mps 712 mmHg 84%
    08:00 +7°C° 0 mm 5 mps 712 mmHg 77%
    09:00 +7°C° 0 mm 5 mps 712 mmHg 70%
    10:00 +8°C° 0 mm 5 mps 712 mmHg 63%
    11:00 +8°C° 0 mm 5 mps 712 mmHg 60%
    12:00 +8°C° 0 mm 6 mps 712 mmHg 58%
    13:00 +9°C° 0 mm 6 mps 712 mmHg 55%
    14:00 +8°C° 0 mm 6 mps 712 mmHg 57%
    15:00 +7°C° 0 mm 6 mps 712 mmHg 58%
    16:00 +5°C° 0 mm 6 mps 712 mmHg 60%
    17:00 +5°C° 0 mm 5 mps 713 mmHg 64%
    18:00 +3°C° 0 mm 5 mps 713 mmHg 68%
    19:00 +3°C° 0 mm 4 mps 713 mmHg 72%
    20:00 +3°C° 0 mm 4 mps 714 mmHg 74%
    21:00 +3°C° 0 mm 4 mps 714 mmHg 76%
    22:00 +3°C° 0 mm 4 mps 714 mmHg 79%
    23:00 +2°C° 0 mm 3 mps 714 mmHg 80%

    25 April, Thursday

    Time Temperature Precipitation Wind Pressure Humidity
    00:00 +2°C° 0 mm 3 mps 714 mmHg 82%
    01:00 +2°C° 0 mm 3 mps 714 mmHg 83%
    02:00 +1°C° 0 mm 4 mps 714 mmHg 82%
    03:00 +1°C° 0 mm 4 mps 715 mmHg 81%
    04:00 +1°C° 0 mm 4 mps 715 mmHg 80%
    05:00 +1°C° 0 mm 4 mps 715 mmHg 75%
    06:00 +3°C° 0 mm 4 mps 716 mmHg 71%
    07:00 +4°C° 0 mm 4 mps 716 mmHg 66%
    08:00 +6°C° 0 mm 4 mps 716 mmHg 61%
    09:00 +7°C° 0 mm 4 mps 716 mmHg 56%
    10:00 +10°C° 0 mm 4 mps 717 mmHg 50%
    11:00 +12°C° 0 mm 4 mps 717 mmHg 46%
    12:00 +13°C° 0 mm 5 mps 717 mmHg 41%
    13:00 +15°C° 0 mm 5 mps 717 mmHg 36%
    14:00 +15°C° 0 mm 4 mps 716 mmHg 38%
    15:00 +15°C° 0 mm 4 mps 716 mmHg 40%
    16:00 +17°C° 0 mm 4 mps 716 mmHg 42%
    17:00 +14°C° 0 mm 3 mps 716 mmHg 52%
    18:00 +12°C° 0 mm 2 mps 717 mmHg 62%
    19:00 +10°C° 0 mm 1 mps 717 mmHg 73%
    20:00 +9°C° 0 mm 1 mps 717 mmHg 76%
    21:00 +8°C° 0 mm 1 mps 717 mmHg 80%
    22:00 +7°C° 0 mm 1 mps 717 mmHg 83%
    23:00 +7°C° 0 mm 1 mps 717 mmHg 81%

    26 April, Friday

    Time Temperature Precipitation Wind Pressure Humidity
    00:00 +7°C° 0 mm 1 mps 716 mmHg 80%
    01:00 +7°C° 0 mm 1 mps 716 mmHg 78%
    02:00 +7°C° 0 mm 1 mps 716 mmHg 78%
    03:00 +7°C° 0 mm 1 mps 716 mmHg 78%
    04:00 +7°C° 0 mm 1 mps 716 mmHg 77%
    05:00 +7°C° 0.1 mm 1 mps 716 mmHg 79%
    06:00 +8°C° 0.1 mm 1 mps 716 mmHg 80%
    07:00 +8°C° 0.1 mm 1 mps 715 mmHg 81%
    08:00 +8°C° 0.3 mm 2 mps 715 mmHg 82%
    09:00 +8°C° 0.3 mm 2 mps 715 mmHg 84%
    10:00 +8°C° 0.3 mm 2 mps 715 mmHg 86%
    11:00 +8°C° 0.7 mm 2 mps 714 mmHg 87%
    12:00 +8°C° 0.7 mm 3 mps 714 mmHg 89%
    13:00 +8°C° 0.7 mm 3 mps 713 mmHg 91%
    14:00 +8°C° 0.9 mm 3 mps 713 mmHg 93%
    15:00 +7°C° 0.9 mm 3 mps 712 mmHg 94%
    16:00 +7°C° 0.9 mm 3 mps 712 mmHg 95%
    17:00 +6°C° 1.1 mm 2 mps 712 mmHg 96%
    18:00 +5°C° 1.1 mm 2 mps 711 mmHg 96%
    19:00 +6°C° 1.1 mm 1 mps 711 mmHg 97%
    20:00 +6°C° 1.4 mm 1 mps 711 mmHg 97%
    21:00 +5°C° 1.4 mm 1 mps 711 mmHg 97%
    22:00 +5°C° 1.4 mm 1 mps 711 mmHg 98%
    23:00 +5°C° 0.8 mm 1 mps 710 mmHg 98%
    Show more